Skip Page Navigation
NASA JPL Caltech
NASA Logo - Jet Propulsion Laboratory + View the NASA Portal
+ Center for Near-Earth Object Studies
JPL Home Earth Solar System Stars & Galaxies Technology
JPL Solar System Dynamics
BODIES ORBITS EPHEMERIDES TOOLS PHYSICAL DATA DISCOVERY FAQ SITE MAP
JPL Small-Body Database Browser
Search: [ help ]  
(2015 TH367)
Classification: TransNeptunian Object          SPK-ID: 3799873
Ephemeris | Orbit Diagram | Orbital Elements | Physical Parameters ]

[ show orbit diagram ]
Orbital Elements at Epoch 2457398.5 (2016-Jan-11.0) TDB
Reference: JPL 2 (heliocentric ecliptic J2000)
 Element Value Uncertainty (1-sigma)   Units 
e .6625433528433631 0.39352  
a 84.95139351207924 80.5 au
q 28.66741242587034 6.2658 au
i 10.98188985263797 0.095046 deg
node 245.1448988390373 0.24574 deg
peri 19.83709056898718 33.751 deg
M 55.48181281033434 113.18 deg
tp 2413322.484231436320
(1895-May-08.98423144)
27260 TDB
period 285992.1994785178
783.00
4.0651e+05
1113
d
yr
n .001258775591279864 0.0017892 deg/d
Q 141.2353745982881 133.83 au
  Orbit Determination Parameters
   # obs. used (total)      8  
   data-arc span      355 days  
   first obs. used      2015-10-13  
   last obs. used      2016-10-02  
   planetary ephem.      DE441  
   SB-pert. ephem.      SB441-N16  
   condition code      9  
   norm. resid. RMS      .14082  
   source      ORB  
   producer      Otto Matic  
   solution date      2021-Apr-15 15:00:18  

Additional Information
 Earth MOID = 27.6521 au 
 Jupiter MOID = 23.3869 au 
 T_jup = 6.003 
[ show covariance matrix ]

Ephemeris | Orbit Diagram | Orbital Elements | Physical Parameters ]

Physical Parameter Table
Parameter Symbol Value Units Sigma Reference Notes
absolute magnitude H 6.6   n/a MPO438858  
Ephemeris | Orbit Diagram | Orbital Elements | Physical Parameters ]
ABOUT SSD CREDITS/AWARDS PRIVACY/COPYRIGHT GLOSSARY LINKS
FirstGov 2021-Apr-19 21:29 UT
(server date/time)  
NASA Home Page
Site Manager:   Ryan S. Park
Webmaster  Alan B. Chamberlin